[[{"header":{"parameterUnit":"m.s-1","parameterCategory":1,"la1":30.2991,"la2":30.254,"lo1":-89.0895,"lo2":-89.0444,"dy":0.0017,"dx":0.0017,"nx":28,"ny":28,"refTime":"2024-03-03T03:00:00:Z","depth":0,"parameterNumber":2,"parameterNumberName":"U-component_of_WINDS"},"data":[0,0,0,0,0,0,0,0,0,0,0,0,0,0,0,0,0,0,0,0,0,0,0,0,0,0,0,0,0,0,0,0,0,0,0,0,0,0,0,0,0,0,0,0,0,0,0,0,0,0,0,0,0,0,0,0,0,0,-3.5601,-3.5601,0,-3.5569,-3.5569,-3.5568,-3.5473,-3.5471,-3.5469,-3.5467,-3.5437,-3.5438,-3.5439,0,0,0,0,0,0,0,0,0,0,0,0,0,-3.5585,-3.5585,-3.5601,-3.5601,-3.5601,-3.5569,-3.5569,-3.5568,-3.5474,-3.5471,-3.5469,-3.5466,-3.5436,-3.5437,-3.5439,0,0,0,0,0,0,0,0,0,0,0,0,0,-3.5576,-3.5586,-3.5601,-3.555,-3.5545,-3.5569,-3.5569,-3.5568,-3.5474,-3.5471,-3.5468,-3.5465,-3.5436,-3.5437,-3.5439,-3.5512,0,0,-3.5444,-3.5445,0,0,0,0,0,0,0,0,-3.5577,-3.5577,-3.5558,-3.5553,-3.5548,-3.5522,-3.5551,-3.5549,-3.5475,-3.5501,-3.5467,-3.5464,-3.5468,-3.5467,-3.5467,-3.551,-3.5509,-3.5444,-3.5445,-3.5446,-3.5446,0,0,0,0,0,0,0,-3.5577,-3.5578,-3.5589,-3.5558,-3.5551,-3.5529,-3.5524,-3.555,-3.5502,-3.5499,-3.5492,-3.5489,-3.5464,-3.5466,-3.5466,-3.5509,-3.5444,-3.5446,-3.5447,-3.5447,-3.5611,-3.5614,0,0,0,0,0,0,-3.5585,-3.5579,-3.559,-3.5588,-3.5555,-3.5532,-3.5527,-3.5533,-3.5502,-3.5494,-3.5492,-3.5485,-3.5465,-3.5464,-3.5465,-3.5547,-3.5446,-3.5448,-3.5449,-3.5607,-3.5611,-3.5615,0,0,0,0,0,0,-3.5585,-3.5587,-3.5591,-3.5581,-3.558,-3.5535,-3.5544,-3.5534,-3.5536,-3.5496,-3.5488,-3.5502,-3.5462,-3.5462,-3.5501,-3.5545,-3.5448,-3.545,-3.5603,-3.5609,-3.5613,-3.5715,0,0,0,0,0,0,-3.5585,-3.5587,-3.5614,-3.5583,-3.5581,-3.5627,-3.5547,-3.5536,-3.5539,-3.5529,-3.5504,-3.5497,-3.546,-3.5499,-3.5502,-3.5546,-3.5451,-3.5599,-3.5606,-3.5612,-3.5707,-3.5722,-3.5736,0,0,0,0,0,-3.5585,-3.5644,-3.5616,-3.5617,-3.5613,-3.563,-3.5629,-3.5584,-3.5543,-3.5569,-3.5544,-3.5497,-3.554,-3.5504,-3.5507,-3.5551,-3.5596,-3.5604,-3.5611,-3.5701,-3.5719,-3.5735,0,0,0,0,0,0,-3.5682,-3.5639,-3.5607,-3.5658,-3.5648,-3.5614,-3.5645,-3.5606,-3.5608,-3.5599,-3.5545,-3.554,-3.5587,-3.5573,-3.5533,-3.5621,-3.5561,-3.5569,-3.5627,-3.5645,-3.5659,-3.5661,-3.5453,0,0,0,0,0,-3.5709,-3.5726,-3.5688,-3.5736,-3.5733,-3.5691,-3.5696,-3.5663,-3.5651,-3.5647,-3.5624,-3.5616,-3.5627,-3.5635,-3.5644,-3.5705,-3.5699,-3.5738,-3.5752,-3.5764,-3.5772,-3.5804,-3.5821,-3.564,-3.564,-3.5639,0,0,-3.5766,-3.5744,-3.5758,-3.5755,-3.5744,-3.5763,-3.5688,-3.5711,-3.5725,-3.565,-3.5685,-3.5669,-3.5656,-3.5706,-3.5727,-3.5696,-3.5821,-3.5774,-3.5783,-3.5784,-3.5813,-3.5831,-3.5846,-3.5645,-3.5644,-3.5643,0,0,-3.5878,-3.5864,-3.5903,-3.5893,-3.5877,-3.5848,-3.5858,-3.583,-3.5816,-3.585,-3.5795,-3.5812,-3.5832,-3.5825,-3.5824,-3.5936,-3.5893,-3.5941,-3.6015,-3.6047,-3.6061,-3.6074,-3.6113,-3.6128,-3.5949,-3.5949,-3.5949,0,-3.5951,-3.5976,-3.5928,-3.5955,-3.5955,-3.5889,-3.5929,-3.5922,-3.591,-3.5913,-3.5878,-3.5903,-3.5889,-3.5937,-3.5965,-3.5967,-3.5976,-3.5943,-3.6063,-3.6075,-3.6086,-3.6123,-3.6138,-3.5955,-3.5954,-3.5954,-3.5953,0,-3.6066,-3.6085,-3.6119,-3.6108,-3.6113,-3.6146,-3.6104,-3.6115,-3.6082,-3.6058,-3.6094,-3.6076,-3.6079,-3.6089,-3.6057,-3.6133,-3.6114,-3.6072,-3.601,-3.611,-3.6144,-3.6158,-3.5963,-3.5961,-3.5959,-3.5958,0,0,-3.6237,-3.62,-3.6213,-3.6208,-3.6186,-3.62,-3.6231,-3.6234,-3.6245,-3.624,-3.6264,-3.6284,-3.6246,-3.6245,-3.6212,-3.6241,-3.6331,-3.6195,-3.6194,-3.622,-3.6414,-3.6444,-3.6462,-3.6303,-3.6305,-3.6307,-3.6414,0,-3.6343,-3.6392,-3.6351,-3.6408,-3.6426,-3.6364,-3.6392,-3.6382,-3.6361,-3.6373,-3.635,-3.6365,-3.6313,-3.6312,-3.6338,-3.6314,-3.6369,-3.6306,-3.6326,-3.6327,-3.633,-3.648,-3.6512,-3.6614,-3.6428,-3.643,-3.6431,0,-3.6472,-3.6472,-3.6532,-3.6507,-3.6513,-3.6538,-3.6538,-3.655,-3.6539,-3.6522,-3.6522,-3.6482,-3.6512,-3.6453,-3.6493,-3.6452,-3.6458,-3.6448,-3.6451,-3.645,-3.6384,-3.6482,-3.6645,-3.666,-3.6452,-3.645,-3.6449,0,-3.659,-3.6605,-3.6643,-3.664,-3.6613,-3.6632,-3.6621,-3.6606,-3.6611,-3.6612,-3.6615,-3.662,-3.6622,-3.6627,-3.659,-3.655,-3.6636,-3.6574,-3.6623,-3.6624,-3.6642,-3.6642,-3.6808,-3.6649,-3.6648,-3.6648,-3.6648,0,-3.6712,-3.6751,-3.6695,-3.6719,-3.6761,-3.6714,-3.6757,-3.674,-3.6728,-3.6748,-3.6696,-3.6715,-3.6665,-3.6681,-3.6652,-3.669,-3.6692,-3.668,-3.6671,-3.6684,-3.6685,-3.6686,-3.6677,-3.6652,-3.6651,-3.665,-3.665,0,-3.685,-3.6815,-3.6851,-3.6823,-3.6816,-3.6849,-3.6824,-3.6845,-3.6821,-3.6847,-3.685,-3.6813,-3.6828,-3.6792,-3.6802,-3.6783,-3.6838,-3.6819,-3.6841,-3.6835,-3.6886,-3.6882,-3.7058,-3.7079,-3.6907,-3.6909,-3.691,0,-3.6929,-3.6958,-3.6932,-3.6941,-3.6933,-3.6949,-3.6953,-3.6909,-3.6917,-3.6906,-3.6929,-3.694,-3.6945,-3.6973,-3.6947,-3.6955,-3.6935,-3.6997,-3.6936,-3.6948,-3.6935,-3.6934,-3.6936,-3.7009,-3.7011,-3.7012,-3.7014,0,-3.7074,-3.7055,-3.7064,-3.7067,-3.7074,-3.7075,-3.7071,-3.7082,-3.7035,-3.7046,-3.7061,-3.7065,-3.7076,-3.7087,-3.7089,-3.708,-3.704,-3.7033,-3.7045,-3.7057,-3.7069,-3.7063,-3.6874,-3.7029,-3.7028,-3.7026,-3.7026,-3.7025,-3.7184,-3.7207,-3.7193,-3.7204,-3.7197,-3.7196,-3.7214,-3.7193,-3.7204,-3.7208,-3.7182,-3.7203,-3.7192,-3.719,-3.7185,-3.7201,-3.7173,-3.719,-3.7195,-3.7199,-3.7207,-3.7068,-3.7202,-3.7201,-3.7201,-3.72,-3.72,0,-3.7326,-3.7314,-3.7325,-3.7322,-3.7332,-3.7293,-3.7288,-3.7299,-3.7317,-3.7311,-3.7318,-3.7335,-3.7346,-3.7323,-3.733,-3.7348,-3.733,-3.7352,-3.7349,-3.7348,-3.7232,-3.7221,-3.7366,-3.7366,-3.7366,-3.7366,-3.7366,-3.7366,-3.74,-3.7436,-3.7417,-3.745,-3.7437,-3.7456,-3.7457,-3.7456,-3.745,-3.7472,-3.7481,-3.7465,-3.7452,-3.7458,-3.7468,-3.746,-3.7465,-3.7494,-3.748,-3.7372,-3.7356,-3.734,-3.7329,-3.7495,-3.7495,-3.7594,-3.7595,-3.7596]},{"header":{"parameterUnit":"m.s-1","parameterCategory":1,"la1":30.2991,"la2":30.254,"lo1":-89.0895,"lo2":-89.0444,"dy":0.0017,"dx":0.0017,"nx":28,"ny":28,"refTime":"2024-03-03T03:00:00:Z","depth":0,"parameterNumber":3,"parameterNumberName":"V-component_of_WINDS"},"data":[0,0,0,0,0,0,0,0,0,0,0,0,0,0,0,0,0,0,0,0,0,0,0,0,0,0,0,0,0,0,0,0,0,0,0,0,0,0,0,0,0,0,0,0,0,0,0,0,0,0,0,0,0,0,0,0,0,0,0.7457,0.7457,0,0.7485,0.7485,0.7486,0.7536,0.7537,0.7538,0.7538,0.7564,0.7564,0.7563,0,0,0,0,0,0,0,0,0,0,0,0,0,0.7444,0.7444,0.7457,0.7457,0.7457,0.7485,0.7485,0.7486,0.7535,0.7537,0.7538,0.7539,0.7564,0.7564,0.7563,0,0,0,0,0,0,0,0,0,0,0,0,0,0.7459,0.7444,0.7457,0.7486,0.7488,0.7485,0.7485,0.7486,0.7535,0.7537,0.7538,0.7539,0.7564,0.7564,0.7563,0.7533,0,0,0.7562,0.7562,0,0,0,0,0,0,0,0,0.7458,0.7459,0.7481,0.7484,0.7487,0.7508,0.749,0.7501,0.7535,0.7517,0.7538,0.754,0.7544,0.7545,0.7547,0.7534,0.7535,0.7562,0.7562,0.7562,0.7562,0,0,0,0,0,0,0,0.7457,0.7458,0.7468,0.7481,0.7485,0.7497,0.75,0.7493,0.7522,0.7519,0.7523,0.7526,0.7546,0.7548,0.7548,0.7535,0.7562,0.7562,0.7562,0.7562,0.7501,0.7499,0,0,0,0,0,0,0.7452,0.7457,0.7467,0.7469,0.7476,0.7496,0.75,0.75,0.7522,0.7527,0.7524,0.7528,0.7547,0.7549,0.7549,0.7517,0.7562,0.7562,0.7561,0.7502,0.75,0.7499,0,0,0,0,0,0,0.7451,0.7452,0.7466,0.7464,0.7467,0.7495,0.7494,0.75,0.7502,0.7526,0.7532,0.7521,0.7549,0.755,0.7537,0.7518,0.7562,0.7561,0.7504,0.7502,0.75,0.745,0,0,0,0,0,0,0.7451,0.7452,0.7441,0.7463,0.7466,0.7453,0.7493,0.7499,0.7501,0.7506,0.7525,0.7529,0.755,0.7538,0.7537,0.7519,0.7561,0.7506,0.7503,0.75,0.7454,0.7447,0.7441,0,0,0,0,0,0.745,0.7424,0.744,0.7441,0.7453,0.7452,0.7454,0.7479,0.75,0.7489,0.7505,0.7528,0.7521,0.7536,0.7536,0.7517,0.7507,0.7504,0.75,0.7456,0.7448,0.7441,0,0,0,0,0,0,0.7396,0.7427,0.7445,0.7426,0.7436,0.7461,0.7447,0.7469,0.7473,0.7477,0.7508,0.7512,0.7495,0.7505,0.7521,0.749,0.7518,0.7514,0.7484,0.7476,0.747,0.7468,0.7561,0,0,0,0,0,0.7383,0.738,0.7407,0.7387,0.7392,0.7419,0.7419,0.7438,0.745,0.7454,0.7469,0.7479,0.7479,0.7478,0.7479,0.7455,0.7461,0.7443,0.7436,0.7431,0.7427,0.7418,0.741,0.7488,0.7488,0.7488,0,0,0.7353,0.737,0.7366,0.7377,0.7387,0.7384,0.7422,0.7416,0.7414,0.7453,0.7443,0.7454,0.7467,0.7449,0.7442,0.7457,0.7407,0.7427,0.7422,0.7422,0.7414,0.7406,0.74,0.7486,0.7487,0.7487,0,0,0.7299,0.731,0.7297,0.7307,0.7323,0.7342,0.7338,0.736,0.737,0.7361,0.7391,0.7388,0.7387,0.7396,0.74,0.7352,0.7374,0.7351,0.7317,0.7307,0.7301,0.7296,0.728,0.7274,0.7347,0.7347,0.7347,0,0.726,0.7257,0.7286,0.728,0.7284,0.7321,0.7308,0.7316,0.7331,0.7333,0.7349,0.7351,0.7362,0.7348,0.7336,0.7338,0.7336,0.7349,0.73,0.7295,0.729,0.7275,0.7269,0.7345,0.7345,0.7345,0.7345,0,0.7209,0.7207,0.7193,0.7209,0.7212,0.7202,0.723,0.7229,0.7249,0.7265,0.7257,0.7272,0.7278,0.7276,0.7293,0.7265,0.7274,0.7294,0.7323,0.7279,0.7266,0.7261,0.7341,0.7342,0.7342,0.7343,0,0,0.712,0.7155,0.7149,0.7158,0.718,0.7178,0.717,0.7178,0.7177,0.7186,0.7181,0.7181,0.7201,0.7206,0.7225,0.7216,0.7179,0.7239,0.7239,0.7228,0.7151,0.7135,0.7128,0.7194,0.7193,0.7193,0.715,0,0.7071,0.706,0.7088,0.707,0.7069,0.7105,0.7099,0.7111,0.7127,0.7128,0.7145,0.7145,0.7171,0.7175,0.7168,0.7185,0.7164,0.7189,0.719,0.7189,0.7186,0.7121,0.7105,0.7064,0.7145,0.7144,0.7143,0,0.7011,0.702,0.7003,0.7028,0.7029,0.7022,0.7033,0.7033,0.7049,0.7061,0.7068,0.7092,0.7086,0.7113,0.7106,0.7122,0.7124,0.7133,0.7132,0.7134,0.7164,0.7122,0.7051,0.7045,0.7135,0.7136,0.7136,0,0.695,0.6957,0.6949,0.6955,0.6983,0.6978,0.699,0.7007,0.7011,0.702,0.7023,0.703,0.7034,0.7039,0.7064,0.7082,0.7055,0.7084,0.7065,0.7065,0.7058,0.7058,0.6987,0.7058,0.7058,0.7058,0.7058,0,0.6892,0.6881,0.6922,0.6917,0.6905,0.6937,0.6925,0.694,0.6955,0.6954,0.6985,0.6982,0.7016,0.7017,0.7037,0.7029,0.703,0.704,0.7045,0.7038,0.7036,0.704,0.7043,0.7056,0.7057,0.7057,0.7057,0,0.6822,0.6849,0.6842,0.6871,0.6878,0.6868,0.6893,0.6889,0.6908,0.6906,0.6907,0.6936,0.694,0.6966,0.6974,0.6988,0.6973,0.6983,0.6968,0.6972,0.6952,0.6954,0.6881,0.6874,0.6948,0.6947,0.6947,0,0.6783,0.6776,0.6804,0.6807,0.6817,0.6819,0.6824,0.6856,0.6859,0.6878,0.6872,0.6879,0.6886,0.689,0.6911,0.6919,0.693,0.6904,0.6931,0.6925,0.6931,0.6932,0.6932,0.6898,0.6898,0.6897,0.6896,0,0.6713,0.6728,0.6734,0.6746,0.6751,0.6761,0.6773,0.6772,0.6807,0.681,0.6815,0.6821,0.6831,0.6837,0.6849,0.6861,0.6884,0.6888,0.6884,0.6876,0.6868,0.6874,0.6953,0.6889,0.689,0.689,0.6891,0.6891,0.6659,0.6655,0.6675,0.6681,0.6694,0.6705,0.6704,0.6724,0.6729,0.6741,0.676,0.6762,0.678,0.6798,0.6808,0.6811,0.6824,0.6819,0.6817,0.6816,0.6812,0.6868,0.6813,0.6813,0.6813,0.6813,0.6814,0,0.6592,0.6607,0.6613,0.663,0.6635,0.6659,0.6674,0.6677,0.6679,0.6694,0.6701,0.6708,0.6715,0.6738,0.6748,0.6745,0.6757,0.6747,0.6748,0.675,0.6799,0.6802,0.6738,0.6738,0.6738,0.6738,0.6738,0.6738,0.6558,0.6553,0.657,0.6572,0.6587,0.6592,0.6599,0.6609,0.6622,0.6628,0.6635,0.6651,0.6669,0.6681,0.6688,0.6695,0.6697,0.6684,0.6694,0.6739,0.6746,0.6753,0.6756,0.6684,0.6684,0.6646,0.6646,0.6645]}]]